DECAYED

STARLINK-1621, 46127 (Decayed)

Orbit data source: Space-Track

STARLINK-1621, 46127 was a payload satellite owned by SpaceX/Seattle (US) in LEO that was launched on Tue, 18 Aug 2020 UTC via an FALCON 9 launch vehicle from the Air Force Eastern Test Range (AFETR). Payload-class satellites include a variety of spacecraft equipped with specific instruments for various scientific and technological missions. These include communications satellites like Starlink; space stations such as the ISS; scientific satellites like the Hubble; Earth observation satellites from companies like Planet Labs, Umbra, and HawkEye 360; GPS; miniature CubeSats for education and research; and military/defense satellites.

Not visible in the next 10 days
Identifier
46127, 2020-057L
Orbit
Decayed
Country
Flag of USUS
Related business
Manufacturer
SpaceX/Seattle
Mission
Decayed Commercial Communications
Bus & Motor
STARLINK, Unknown motor
Mass
260 kg wet, ~248 kg dry
Launch date (UTC)
2020-08-18 (6 years ago)
Launch vehicle
FALCON 9
Launch site
Air Force Eastern Test Range (AFETR)
Object type
Payload
Rocket body
Debris
Shape & HBR
Box + 1 Pan, 10.1 m
Radar Cross Section
13.562 m², Large (>1 m²)

Expand to show TLE details & history
Last TLE update: 2 months ago

TLE from 2 months ago
0 STARLINK-1621
1 46127U 20057L   26118.88109075  .11211346  12434-4  49622-3 0  9993
2 46127  53.0234 347.0225 0008647 267.8407  92.1650 16.42773273315083
Epoch: 2026-04-28T21:08Z
TLE epoch observation values (Epoch: 2026-04-28T21:08:46.240Z)
Latitude
-0.00006°
Longitude
172.97974°
Altitude
159.582 km
Speed
7.812 km/s
True Right ascension
23h 08m 05s
True Declination
0° 00' 00"
Sunlit
Object was in daylight at epoch
Visualization orbit readout
Latitude
Unknown
Longitude
Unknown
Altitude
Unknown
Speed
Unknown
Apparent Right ascension
Unknown
Apparent Declination
Unknown
Sunlit
N/A
Visualization observer readout
Local Sidereal Time
21:42:00
Azimuth
Unknown
Elevation
Unknown
Doppler factor
Unknown
Orbital elements
Apogee altitude
164.38 km
Perigee altitude
153.075 km
Semi-major axis
6,536.864 km
Eccentricity
0.00086
Inclination
53.0234°
RAAN
347.0225°
Arg. of periapsis
267.8407°
True anomaly
92.26401°
Mean anomaly
92.165°
Eccentric anomaly
92.21451°
Mean motion
4.10666 °/min
Orbital period
87.66 mins
BSTAR
0.00049622
Loading maneuver chart data...
Computing Atmospheric mass density...

Documentation

Showing up to 5 results
|